This is the latest recevied weather packets stored in our database for station/object G4KVI. If no packets are shown the sender has not sent any weather packets the latest 10 day(s).
| Time | Temp. | Humidity | Pressure | Rain* | Wind** | Luminosity | Snow |
|---|---|---|---|---|---|---|---|
| 1777070103 | 6.67° C | 75% | 1024.6 hPa | 0 mm | - | 0 W/m² | - |
| 1777069803 | 7.22° C | 74% | 1024.7 hPa | 0 mm | - | 0 W/m² | - |
| 1777069503 | 7.22° C | 74% | 1024.9 hPa | 0 mm | - | 0 W/m² | - |
| 1777069203 | 7.22° C | 73% | 1024.5 hPa | 0 mm | - | 0 W/m² | - |
| 1777068903 | 7.22° C | 73% | 1024.6 hPa | 0 mm | - | 0 W/m² | - |
| 1777068603 | 7.78° C | 72% | 1024.6 hPa | 0 mm | - | 0 W/m² | - |
| 1777068303 | 7.78° C | 72% | 1024.5 hPa | 0 mm | - | 0 W/m² | - |
| 1777068003 | 7.78° C | 72% | 1024.6 hPa | 0 mm | - | 0 W/m² | - |
| 1777067703 | 7.78° C | 71% | 1024.5 hPa | 0 mm | - | 0 W/m² | - |
| 1777067403 | 8.33° C | 70% | 1024.7 hPa | 0 mm | - | 0 W/m² | - |
| 1777067103 | 8.33° C | 70% | 1024.6 hPa | 0 mm | - | 0 W/m² | - |
| 1777066803 | 8.33° C | 69% | 1024.5 hPa | 0 mm | - | 0 W/m² | - |
| 1777066503 | 8.89° C | 69% | 1024.7 hPa | 0 mm | - | 0 W/m² | - |
| 1777066203 | 8.33° C | 69% | 1024.4 hPa | 0 mm | - | 0 W/m² | - |
| 1777065903 | 8.33° C | 67% | 1024.4 hPa | 0 mm | - | 0 W/m² | - |
| 1777065603 | 8.89° C | 66% | 1024.4 hPa | 0 mm | - | 0 W/m² | - |
| 1777065303 | 9.44° C | 66% | 1024.4 hPa | 0 mm | - | 0 W/m² | - |
| 1777065003 | 9.44° C | 65% | 1024.4 hPa | 0 mm | - | 0 W/m² | - |
| 1777064703 | 9.44° C | 65% | 1024.6 hPa | 0 mm | - | 0 W/m² | - |
| 1777064403 | 10.56° C | 61% | 1024.4 hPa | 0 mm | - | 0 W/m² | - |
| 1777064103 | 10.56° C | 61% | 1024.6 hPa | 0 mm | - | 0 W/m² | - |
| 1777063803 | 10.56° C | 61% | 1024.4 hPa | 0 mm | - | 0 W/m² | - |
| 1777063503 | 10.56° C | 61% | 1024.5 hPa | 0 mm | - | 0 W/m² | - |
| 1777063203 | 10.56° C | 61% | 1024.4 hPa | 0 mm | - | 0 W/m² | - |
| 1777062903 | 11.11° C | 60% | 1024.4 hPa | 0 mm | - | 0 W/m² | - |
* Rain latest hour (hover to see other rain measurements)
** Current wind speed in m/s (hover to see current wind gust speed)